Погода в Хынчештах

Молдова     46°49′41″N   28°35′20″E
темп.,
°C
ветер,
м/с
пор.,
м/с
влажн.,
%
обл.,
%
осадки,
мм/ч
давл.,
гПа
погр.,
м
19 апреля, пн
пн1900:00+8зсз2286100 0.8 1018189
03:00+8зсз1290100 1.6 1017191
06:00+8з1188100 0.3 101672
09:00+8зсз1187100 0.6 1016163
12:00+10сз2272100 0.3 1016773
15:00+11св2367100 0.6 1014852
18:00+12всв126296 0.0 1013772
21:00+10ссв227299 0.0 101215
20 апреля, вт
вт2000:00+9ссз3481100 0.1 1011101
03:00+8ссв4886100 0.2 1010236
06:00+8с4787100 0.4 1009261
09:00+9с5769100 0.5 1010533
12:00+13с464976 0.0 10091876
15:00+14сз5642100 0.1 10102098
18:00+13сз45435 0.0 10101707
21:00+9зсз11583 0.0 101110
21 апреля, ср
ср2100:00+8зюз11625 0.0 101210
03:00+7зсз22695 0.0 101311
06:00+6сз118593 0.0 101311
09:00+10ссз2374100 0.0 1014312
12:00+11зсз2268100 1.1 1015793
15:00+13з235759 2.4 10151107
18:00+14зсз245345 0.3 10141228
21:00+11ююз11665 0.3 101610
22 апреля, чт
чт2200:00+9ю22725 0.0 101610
03:00+8ююз11765 0.0 101710
06:00+7ю22795 0.0 101710
09:00+12ююз22615 0.0 1018290
12:00+16ююз33420 0.0 10181406
15:00+18юз55385 0.0 10172298
18:00+18юз563980 0.0 10162237
21:00+14ююз3560100 0.0 1017123
23 апреля, пт
пт2300:00+11ююв356787 0.0 101779
03:00+10ю35731 0.0 101675
06:00+9ююв33780 0.0 101644
09:00+13ююз45645 0.0 1016302
12:00+19юз44434 0.0 10161387
15:00+19зсз5541100 0.0 10141726
18:00+12ссз7973100 0.3 1016702
21:00+9ссв4780100 4.3 1019519